Estación de Illapel

Ultimos registro cada 15 minutos 95
Estación Fecha / Hora Temperatura Humedad Lluvia Velocidad Dirección Radiación Presion
95 Illapel 02-09-2026 23:30 12,3 28 0 0 246 0 995,3
94 Illapel 02-09-2026 23:15 12,4 28 0 0,4 243 0 995,5
93 Illapel 02-09-2026 23:00 12,4 28 0 0,4 242 0 995,4
92 Illapel 02-09-2026 22:45 12,6 28 0 0 242 0 995,5
91 Illapel 02-09-2026 22:30 12,6 28 0 0 242 0 995,5
90 Illapel 02-09-2026 22:15 12,7 29 0 0 242 0 995,5
89 Illapel 02-09-2026 22:00 12,8 30 0 0 242 0 995,4
88 Illapel 02-09-2026 21:45 12,8 31 0 0 242 0 995,4
87 Illapel 02-09-2026 21:30 12,8 32 0 0 242 0 995,1
86 Illapel 02-09-2026 21:15 12,6 40 0 0 239 0 995,3
85 Illapel 02-09-2026 21:00 12,9 41 0 0 239 0 995,3
84 Illapel 02-09-2026 20:45 13,2 42 0 0,4 239 0 995,3
83 Illapel 02-09-2026 20:30 13,3 45 0 1,3 238 0 995,3
82 Illapel 02-09-2026 20:15 13,4 49 0 1,3 228 0 995,3
81 Illapel 02-09-2026 20:00 13,6 52 0 1,3 250 0 995,2
80 Illapel 02-09-2026 19:45 13,8 54 0 0,9 246 0 995
79 Illapel 02-09-2026 19:30 14,1 57 0 0,9 251 0 995
78 Illapel 02-09-2026 19:15 14,4 59 0 0,4 255 0 994,8
77 Illapel 02-09-2026 19:00 14,9 59 0 0 255 0 994,8
76 Illapel 02-09-2026 18:45 15,1 60 0 0,9 251 0 994,5
75 Illapel 02-09-2026 18:30 15,4 61 0 1,3 230 0 994,8
74 Illapel 02-09-2026 18:15 15,9 61 0 0,4 267 5 995,2
73 Illapel 02-09-2026 18:00 16,4 60 0 3,1 239 14 995,2
72 Illapel 02-09-2026 17:45 16,9 59 0 2,2 237 19 995
71 Illapel 02-09-2026 17:30 17,3 59 0 1,3 246 23 994,9
70 Illapel 02-09-2026 17:15 17,8 58 0 2,2 270 26 995
69 Illapel 02-09-2026 17:00 18 57 0 1,8 251 33 994,9
68 Illapel 02-09-2026 16:45 18,3 57 0 1,8 262 105 994,7
67 Illapel 02-09-2026 16:30 18,6 56 0 2,7 256 237 994,3
66 Illapel 02-09-2026 16:15 18,9 55 0 2,7 229 192 994,1
65 Illapel 02-09-2026 16:00 19,6 55 0 1,8 263 322 994
64 Illapel 02-09-2026 15:45 19,9 54 0 0,9 252 255 993,9
63 Illapel 02-09-2026 15:30 20,3 52 0 0,4 270 260 994,1
62 Illapel 02-09-2026 15:15 20,7 51 0 0,4 260 327 994
61 Illapel 02-09-2026 15:00 20,8 50 0 1,8 327 415 993,8
60 Illapel 02-09-2026 14:45 20,4 50 0 0,4 325 383 994,1
59 Illapel 02-09-2026 14:30 20,2 51 0 0,9 329 364 994
58 Illapel 02-09-2026 14:15 20 51 0 0,4 272 378 994,3
57 Illapel 02-09-2026 14:00 19,8 52 0 0,4 271 320 994,3
56 Illapel 02-09-2026 13:45 19,7 51 0 0,4 359 432 994,5
55 Illapel 02-09-2026 13:30 19,6 53 0 0 312 401 994,9
54 Illapel 02-09-2026 13:15 19,1 52 0 0,9 323 427 995
53 Illapel 02-09-2026 13:00 18,9 52 0 0,4 326 348 995,2
52 Illapel 02-09-2026 12:45 19,2 52 0 3,1 316 364 995,3
51 Illapel 02-09-2026 12:30 19 53 0 1,8 308 376 995,2
50 Illapel 02-09-2026 12:15 19,1 52 0 2,2 325 315 995,3
49 Illapel 02-09-2026 12:00 19,1 52 0 0,9 347 338 995,3
48 Illapel 02-09-2026 11:45 18,8 53 0 0,9 82 360 995,1
47 Illapel 02-09-2026 11:30 18,4 52 0 0,4 83 320 995,2
46 Illapel 02-09-2026 11:15 17,8 53 0 0 84 308 995,4
45 Illapel 02-09-2026 11:00 17,1 52 0 0,4 84 308 995,5
44 Illapel 02-09-2026 10:45 16,3 52 0 0 84 295 995,7
43 Illapel 02-09-2026 10:30 15,7 50 0 0 84 301 995,8
42 Illapel 02-09-2026 10:15 15,3 46 0 0,4 86 274 996
41 Illapel 02-09-2026 10:00 14,8 38 0 0 87 250 997
40 Illapel 02-09-2026 09:45 14,4 31 0 0 88 239 995,9
39 Illapel 02-09-2026 09:30 14 27 0 0,9 104 213 995,9
38 Illapel 02-09-2026 09:15 13,4 28 0 0 106 176 996
37 Illapel 02-09-2026 09:00 13,1 28 0 0,4 106 169 995,9
36 Illapel 02-09-2026 08:45 12,9 29 0 0,4 110 146 996
35 Illapel 02-09-2026 08:30 12,6 30 0 0 110 118 996,4
34 Illapel 02-09-2026 08:15 11,9 30 0 0 110 91 996,4
33 Illapel 02-09-2026 08:00 11,5 29 0 0,4 139 69 996,3
32 Illapel 02-09-2026 07:45 11,4 29 0 0 139 40 996
31 Illapel 02-09-2026 07:30 11,4 29 0 0 139 26 995,9
30 Illapel 02-09-2026 07:15 11,5 28 0 0 139 12 995,9
29 Illapel 02-09-2026 07:00 11,8 29 0 0 139 0 995,8
28 Illapel 02-09-2026 06:45 11,6 29 0 0 129 0 995,5
27 Illapel 02-09-2026 06:30 11,5 29 0 0,4 127 0 995,4
26 Illapel 02-09-2026 06:15 11,3 28 0 0 147 0 995,4
25 Illapel 02-09-2026 06:00 11,3 29 0 0 146 0 995,4
24 Illapel 02-09-2026 05:45 11,3 28 0 0 146 0 995,5
23 Illapel 02-09-2026 05:30 11,3 29 0 0 142 0 995,5
22 Illapel 02-09-2026 05:15 11 29 0 0,4 250 0 995,6
21 Illapel 02-09-2026 05:00 11,2 28 0 0 250 0 995,7
20 Illapel 02-09-2026 04:45 11,1 29 0 0,4 250 0 995,7
19 Illapel 02-09-2026 04:30 10,9 29 0 0 250 0 995,6
18 Illapel 02-09-2026 04:15 11,2 30 0 0 250 0 995,9
17 Illapel 02-09-2026 04:00 11,1 31 0 0 250 0 995,8
16 Illapel 02-09-2026 03:45 11,2 31 0 0 250 0 996
15 Illapel 02-09-2026 03:30 11,2 32 0 0 250 0 996,2
14 Illapel 02-09-2026 03:15 11,4 31 0 0 250 0 996
13 Illapel 02-09-2026 03:00 11,7 32 0 0,4 250 0 995,9
12 Illapel 02-09-2026 02:45 11,3 42 0 0 251 0 996
11 Illapel 02-09-2026 02:30 11,7 41 0 0 251 0 995,9
10 Illapel 02-09-2026 02:15 12 43 0 0,4 244 0 996
9 Illapel 02-09-2026 02:00 12,1 44 0 0 245 0 995,9
8 Illapel 02-09-2026 01:45 12,2 45 0 0 245 0 996
7 Illapel 02-09-2026 01:30 12,4 45 0 0 245 0 995,9
6 Illapel 02-09-2026 01:15 12,5 45 0 0 245 0 995,9
5 Illapel 02-09-2026 01:00 12,5 45 0 0 245 0 996,1
4 Illapel 02-09-2026 00:45 12,6 45 0 0 245 0 996
3 Illapel 02-09-2026 00:30 12,8 46 0 0 245 0 996
2 Illapel 02-09-2026 00:15 12,5 50 0 0 246 0 996,2
1 Illapel 02-09-2026 00:00 12,5 53 0 0 246 0 996,3